CCA2618 ZSNJ-ZUTF

Flight info

Callsign CCA2618
Flight time 2h 7m
Altitude 32100
Route SUNBO W163 HFE W50 XSH W80 AKOPI AKOPI3K
Aircraft B738/M-SDE2E3FGHIRWXY/LB1

Departure

Time 2026-05-04 12:27
Airport Nanjing Lukou International Airport (ZSNJ)

Arrival

Time 2026-05-04 14:35
Airport Chengdu Tianfu International Airport (ZUTF)
Time Latitude Longitude Altitude Speed Heading
2026-05-04 12:10 31.73227 118.86541 52 ft 0 kts 116°
2026-05-04 12:17 31.73228 118.86541 52 ft 0 kts 116°
2026-05-04 12:17 31.73230 118.86536 52 ft 2 kts 116°
2026-05-04 12:17 31.73236 118.86519 52 ft 2 kts 116°
2026-05-04 12:18 31.73243 118.86503 52 ft 2 kts 116°
2026-05-04 12:18 31.73249 118.86488 52 ft 2 kts 116°
2026-05-04 12:18 31.73257 118.86472 52 ft 2 kts 132°
2026-05-04 12:18 31.73269 118.86461 52 ft 2 kts 156°
2026-05-04 12:19 31.73283 118.86457 52 ft 2 kts 181°
2026-05-04 12:19 31.73292 118.86458 52 ft 1 kts 195°
2026-05-04 12:19 31.73298 118.86460 52 ft 0 kts 196°
2026-05-04 12:20 31.73297 118.86460 52 ft 1 kts 196°
2026-05-04 12:21 31.73297 118.86459 52 ft 1 kts 196°
2026-05-04 12:21 31.73291 118.86458 52 ft 3 kts 197°
2026-05-04 12:21 31.73247 118.86425 52 ft 11 kts 228°
2026-05-04 12:22 31.73200 118.86343 52 ft 12 kts 234°
2026-05-04 12:22 31.73114 118.86342 52 ft 17 kts 149°
2026-05-04 12:22 31.72997 118.86430 52 ft 21 kts 137°
2026-05-04 12:22 31.72986 118.86441 52 ft 21 kts 143°
2026-05-04 12:23 31.72921 118.86490 52 ft 23 kts 150°
2026-05-04 12:23 31.72794 118.86580 52 ft 19 kts 149°
2026-05-04 12:23 31.72685 118.86657 52 ft 18 kts 148°
2026-05-04 12:23 31.72599 118.86751 52 ft 16 kts 91°
2026-05-04 12:24 31.72656 118.86876 52 ft 20 kts 58°
2026-05-04 12:24 31.72743 118.87041 52 ft 26 kts 59°
2026-05-04 12:24 31.72760 118.87075 52 ft 27 kts 58°
2026-05-04 12:24 31.72791 118.87131 52 ft 29 kts 58°
2026-05-04 12:25 31.72911 118.87354 52 ft 34 kts 59°
2026-05-04 12:25 31.73037 118.87595 52 ft 33 kts 57°
2026-05-04 12:25 31.73150 118.87802 52 ft 23 kts 57°
2026-05-04 12:25 31.73194 118.87920 52 ft 12 kts 107°
2026-05-04 12:26 31.73114 118.87992 52 ft 17 kts 154°
2026-05-04 12:26 31.73002 118.87911 52 ft 31 kts 237°
2026-05-04 12:26 31.72759 118.87453 52 ft 98 kts 239°
2026-05-04 12:26 31.72291 118.86575 52 ft 155 kts 237°
2026-05-04 12:27 31.71654 118.85335 226 ft 187 kts 239°
2026-05-04 12:27 31.71040 118.84032 1011 ft 184 kts 236°
2026-05-04 12:27 31.70324 118.82782 1620 ft 193 kts 232°
2026-05-04 12:27 31.69544 118.81444 2114 ft 205 kts 234°
2026-05-04 12:28 31.68750 118.80003 2579 ft 219 kts 236°
2026-05-04 12:28 31.67933 118.78442 3038 ft 233 kts 240°
2026-05-04 12:28 31.67405 118.76609 3576 ft 246 kts 262°
2026-05-04 12:28 31.67365 118.74525 4070 ft 261 kts 271°
2026-05-04 12:29 31.67431 118.72394 4782 ft 265 kts 271°
2026-05-04 12:29 31.67463 118.70236 5561 ft 267 kts 271°
2026-05-04 12:29 31.67459 118.68108 6355 ft 267 kts 270°
2026-05-04 12:29 31.67437 118.65932 7054 ft 271 kts 271°
2026-05-04 12:30 31.67410 118.63716 7753 ft 274 kts 271°
2026-05-04 12:30 31.67381 118.61472 8443 ft 277 kts 271°
2026-05-04 12:30 31.67346 118.59223 9098 ft 280 kts 272°
2026-05-04 12:30 31.67310 118.56928 9761 ft 283 kts 272°
2026-05-04 12:31 31.67273 118.54617 10371 ft 288 kts 272°
2026-05-04 12:31 31.67237 118.52202 10726 ft 303 kts 272°
2026-05-04 12:31 31.67200 118.49675 11052 ft 318 kts 271°
2026-05-04 12:31 31.67161 118.47049 11371 ft 333 kts 271°
2026-05-04 12:32 31.67119 118.44263 11693 ft 347 kts 271°
2026-05-04 12:32 31.67029 118.38372 12229 ft 377 kts 271°
2026-05-04 12:32 31.66979 118.35255 12568 ft 388 kts 271°
2026-05-04 12:33 31.66926 118.32075 13225 ft 391 kts 270°
2026-05-04 12:33 31.66871 118.28878 13902 ft 393 kts 270°
2026-05-04 12:33 31.66816 118.25703 14578 ft 395 kts 270°
2026-05-04 12:33 31.66761 118.22483 15281 ft 397 kts 270°
2026-05-04 12:34 31.66704 118.19262 15977 ft 399 kts 270°
2026-05-04 12:34 31.66604 118.15994 16681 ft 401 kts 268°
2026-05-04 12:34 31.66364 118.12711 17314 ft 404 kts 265°
2026-05-04 12:34 31.66043 118.09461 17935 ft 407 kts 264°
2026-05-04 12:35 31.65685 118.06146 18491 ft 411 kts 264°
2026-05-04 12:35 31.65326 118.02815 19080 ft 414 kts 264°
2026-05-04 12:35 31.64974 117.99457 19648 ft 417 kts 264°
2026-05-04 12:35 31.64635 117.96096 20173 ft 421 kts 265°
2026-05-04 12:36 31.64296 117.92669 20753 ft 424 kts 265°
2026-05-04 12:36 31.63958 117.89214 21263 ft 428 kts 265°
2026-05-04 12:36 31.63624 117.85788 21812 ft 430 kts 265°
2026-05-04 12:36 31.63283 117.82290 22331 ft 433 kts 265°
2026-05-04 12:37 31.62939 117.78776 22772 ft 437 kts 265°
2026-05-04 12:37 31.62590 117.75216 23317 ft 439 kts 265°
2026-05-04 12:37 31.62244 117.71694 23841 ft 441 kts 265°
2026-05-04 12:37 31.61914 117.68092 24309 ft 443 kts 266°
2026-05-04 12:38 31.61766 117.64523 24821 ft 444 kts 271°
2026-05-04 12:38 31.62019 117.60915 25391 ft 443 kts 279°
2026-05-04 12:38 31.62714 117.57415 25800 ft 447 kts 286°
2026-05-04 12:38 31.63785 117.53996 26256 ft 449 kts 291°
2026-05-04 12:39 31.65118 117.50649 26666 ft 453 kts 296°
2026-05-04 12:39 31.66721 117.47483 27338 ft 450 kts 301°
2026-05-04 12:39 31.68400 117.44478 28107 ft 443 kts 301°
2026-05-04 12:39 31.69935 117.41370 28585 ft 442 kts 295°
2026-05-04 12:40 31.71060 117.38018 29085 ft 439 kts 286°
2026-05-04 12:40 31.71692 117.34558 29596 ft 436 kts 277°
2026-05-04 12:40 31.71941 117.31016 30198 ft 431 kts 272°
2026-05-04 12:40 31.71962 117.27557 30777 ft 426 kts 269°
2026-05-04 12:41 31.71863 117.24077 31230 ft 424 kts 266°
2026-05-04 12:41 31.71486 117.20679 31636 ft 422 kts 260°
2026-05-04 12:41 31.70754 117.17375 32022 ft 421 kts 253°
2026-05-04 12:42 31.68129 117.11181 32107 ft 428 kts 240°
2026-05-04 12:42 31.64621 117.05577 32117 ft 425 kts 238°
2026-05-04 12:43 31.60663 117.00370 32118 ft 436 kts 224°
2026-05-04 12:43 31.55877 116.95986 32115 ft 431 kts 229°
2026-05-04 12:44 31.51906 116.90842 32117 ft 427 kts 236°
2026-05-04 12:44 31.48262 116.85383 32120 ft 425 kts 237°
2026-05-04 12:45 31.44698 116.79879 32130 ft 423 kts 237°
2026-05-04 12:45 31.41156 116.74382 32133 ft 424 kts 237°
2026-05-04 12:46 31.37594 116.68890 32131 ft 424 kts 237°
2026-05-04 12:46 31.34018 116.63415 32137 ft 422 kts 237°
2026-05-04 12:47 31.30465 116.57994 32153 ft 423 kts 237°
2026-05-04 12:47 31.26883 116.52532 32168 ft 422 kts 237°
2026-05-04 12:48 31.23323 116.47117 32180 ft 421 kts 237°
2026-05-04 12:48 31.19772 116.41726 32197 ft 420 kts 237°
2026-05-04 12:49 31.16209 116.36318 32202 ft 421 kts 237°
2026-05-04 12:49 31.12645 116.30919 32199 ft 422 kts 237°
2026-05-04 12:50 31.09074 116.25520 32205 ft 419 kts 237°
2026-05-04 12:50 31.05506 116.20132 32212 ft 417 kts 237°
2026-05-04 12:51 31.01968 116.14794 32212 ft 418 kts 237°
2026-05-04 12:51 30.98426 116.09456 32218 ft 417 kts 237°
2026-05-04 12:52 30.94876 116.04111 32216 ft 419 kts 237°
2026-05-04 12:52 30.91331 115.98779 32207 ft 416 kts 237°
2026-05-04 12:53 30.87784 115.93457 32192 ft 417 kts 237°
2026-05-04 12:53 30.84240 115.88145 32186 ft 414 kts 237°
2026-05-04 12:54 30.80714 115.82812 32177 ft 414 kts 237°
2026-05-04 12:54 30.77224 115.77509 32163 ft 416 kts 237°
2026-05-04 12:55 30.73703 115.72166 32157 ft 416 kts 237°
2026-05-04 12:55 30.70216 115.66886 32157 ft 415 kts 237°
2026-05-04 12:56 30.66688 115.61551 32149 ft 414 kts 237°
2026-05-04 12:56 30.63197 115.56284 32151 ft 414 kts 237°
2026-05-04 12:57 30.59690 115.51004 32145 ft 413 kts 237°
2026-05-04 12:57 30.56210 115.45769 32147 ft 414 kts 237°
2026-05-04 12:58 30.52695 115.40486 32144 ft 411 kts 237°
2026-05-04 12:58 30.49212 115.35258 32141 ft 414 kts 237°
2026-05-04 12:59 30.46195 115.29630 32140 ft 407 kts 249°
2026-05-04 12:59 30.44686 115.23408 32144 ft 403 kts 261°
2026-05-04 13:00 30.44382 115.16913 32130 ft 406 kts 271°
2026-05-04 13:00 30.44971 115.10455 32134 ft 405 kts 275°
2026-05-04 13:01 30.45747 115.03973 32128 ft 407 kts 276°
2026-05-04 13:01 30.46493 114.97490 32127 ft 408 kts 275°
2026-05-04 13:02 30.47190 114.91036 32128 ft 406 kts 275°
2026-05-04 13:02 30.47865 114.84531 32123 ft 409 kts 275°
2026-05-04 13:03 30.48531 114.77994 32126 ft 408 kts 275°
2026-05-04 13:03 30.49190 114.71472 32124 ft 409 kts 275°
2026-05-04 13:04 30.49845 114.64960 32124 ft 411 kts 275°
2026-05-04 13:04 30.50498 114.58426 32132 ft 410 kts 275°
2026-05-04 13:05 30.51151 114.51877 32123 ft 409 kts 275°
2026-05-04 13:05 30.51800 114.45309 32121 ft 411 kts 275°
2026-05-04 13:06 30.52444 114.38769 32123 ft 410 kts 275°
2026-05-04 13:06 30.53089 114.32162 32111 ft 411 kts 274°
2026-05-04 13:07 30.53727 114.25594 32115 ft 412 kts 275°
2026-05-04 13:07 30.54365 114.19019 32114 ft 413 kts 275°
2026-05-04 13:08 30.54991 114.12393 32115 ft 412 kts 275°
2026-05-04 13:08 30.55621 114.05791 32105 ft 415 kts 275°
2026-05-04 13:09 30.56259 113.99174 32106 ft 416 kts 275°
2026-05-04 13:09 30.56879 113.92563 32102 ft 414 kts 275°
2026-05-04 13:10 30.57495 113.85912 32112 ft 415 kts 275°
2026-05-04 13:10 30.57719 113.79265 32108 ft 415 kts 268°
2026-05-04 13:11 30.57466 113.72581 32105 ft 413 kts 267°
2026-05-04 13:11 30.57155 113.65971 32106 ft 414 kts 267°
2026-05-04 13:12 30.56862 113.59290 32096 ft 415 kts 267°
2026-05-04 13:12 30.56591 113.52644 32112 ft 414 kts 268°
2026-05-04 13:13 30.56327 113.45953 32093 ft 415 kts 268°
2026-05-04 13:13 30.56062 113.39278 32104 ft 416 kts 268°
2026-05-04 13:14 30.55795 113.32549 32086 ft 418 kts 267°
2026-05-04 13:14 30.55524 113.25835 32098 ft 416 kts 267°
2026-05-04 13:15 30.55254 113.19153 32088 ft 416 kts 267°
2026-05-04 13:15 30.54980 113.12458 32099 ft 417 kts 267°
2026-05-04 13:16 30.54701 113.05742 32086 ft 419 kts 267°
2026-05-04 13:16 30.54418 112.99010 32091 ft 416 kts 267°
2026-05-04 13:17 30.54136 112.92353 32091 ft 417 kts 267°
2026-05-04 13:17 30.53845 112.85611 32088 ft 419 kts 268°
2026-05-04 13:18 30.53551 112.78887 32075 ft 419 kts 267°
2026-05-04 13:18 30.53254 112.72176 32088 ft 419 kts 268°
2026-05-04 13:19 30.52955 112.65403 32089 ft 420 kts 267°
2026-05-04 13:19 30.52655 112.58693 32082 ft 420 kts 268°
2026-05-04 13:20 30.52344 112.51902 32088 ft 420 kts 268°
2026-05-04 13:20 30.52032 112.45142 32090 ft 421 kts 267°
2026-05-04 13:21 30.51714 112.38383 32084 ft 422 kts 268°
2026-05-04 13:21 30.51395 112.31633 32088 ft 421 kts 267°
2026-05-04 13:22 30.51075 112.24886 32086 ft 422 kts 267°
2026-05-04 13:22 30.50804 112.19204 32080 ft 423 kts 267°
2026-05-04 13:23 30.50420 112.11312 32092 ft 421 kts 267°
2026-05-04 13:23 30.50083 112.04530 32078 ft 423 kts 267°
2026-05-04 13:24 30.49744 111.97757 32092 ft 423 kts 268°
2026-05-04 13:24 30.49404 111.90983 32091 ft 423 kts 268°
2026-05-04 13:25 30.48886 111.80777 32098 ft 424 kts 267°
2026-05-04 13:25 30.48537 111.73998 32103 ft 424 kts 268°
2026-05-04 13:26 30.48182 111.67197 32097 ft 424 kts 267°
2026-05-04 13:26 30.47816 111.60365 32115 ft 426 kts 268°
2026-05-04 13:27 30.47445 111.53546 32116 ft 424 kts 268°
2026-05-04 13:27 30.47015 111.46747 32121 ft 427 kts 265°
2026-05-04 13:28 30.46167 111.39981 32131 ft 427 kts 263°
2026-05-04 13:28 30.45169 111.33194 32129 ft 426 kts 262°
2026-05-04 13:29 30.44179 111.26440 32150 ft 427 kts 262°
2026-05-04 13:29 30.43202 111.19635 32164 ft 427 kts 262°
2026-05-04 13:30 30.42243 111.12852 32183 ft 428 kts 263°
2026-05-04 13:30 30.41287 111.06080 32188 ft 428 kts 263°
2026-05-04 13:31 30.40332 110.99299 32207 ft 428 kts 263°
2026-05-04 13:31 30.39374 110.92529 32225 ft 427 kts 263°
2026-05-04 13:32 30.38419 110.85795 32240 ft 429 kts 263°
2026-05-04 13:32 30.37453 110.79016 32252 ft 424 kts 263°
2026-05-04 13:33 30.36487 110.72285 32262 ft 427 kts 263°
2026-05-04 13:33 30.35518 110.65527 32260 ft 427 kts 263°
2026-05-04 13:34 30.34546 110.58767 32246 ft 426 kts 263°
2026-05-04 13:34 30.33567 110.51986 32243 ft 429 kts 263°
2026-05-04 13:35 30.32087 110.41827 32240 ft 430 kts 263°
2026-05-04 13:36 30.31095 110.35054 32241 ft 429 kts 263°
2026-05-04 13:36 30.30098 110.28249 32246 ft 429 kts 263°
2026-05-04 13:37 30.29105 110.21507 32249 ft 428 kts 263°
2026-05-04 13:37 30.28104 110.14721 32265 ft 428 kts 263°
2026-05-04 13:38 30.27103 110.07941 32273 ft 429 kts 263°
2026-05-04 13:38 30.26100 110.01196 32279 ft 426 kts 263°
2026-05-04 13:39 30.25091 109.94464 32295 ft 427 kts 263°
2026-05-04 13:39 30.24078 109.87706 32284 ft 427 kts 263°
2026-05-04 13:40 30.23068 109.81001 32276 ft 426 kts 263°
2026-05-04 13:40 30.22049 109.74258 32271 ft 426 kts 263°
2026-05-04 13:41 30.21035 109.67552 32260 ft 425 kts 263°
2026-05-04 13:41 30.19993 109.60818 32240 ft 425 kts 262°
2026-05-04 13:42 30.17608 109.50925 32217 ft 428 kts 257°
2026-05-04 13:42 30.15790 109.44365 32214 ft 430 kts 257°
2026-05-04 13:43 30.13997 109.37826 32207 ft 428 kts 257°
2026-05-04 13:43 30.12225 109.31283 32206 ft 429 kts 257°
2026-05-04 13:44 30.10449 109.24685 32206 ft 428 kts 257°
2026-05-04 13:44 30.08692 109.18140 32207 ft 429 kts 257°
2026-05-04 13:45 30.06923 109.11553 32218 ft 430 kts 257°
2026-05-04 13:45 30.05160 109.05026 32200 ft 428 kts 257°
2026-05-04 13:46 30.03387 108.98463 32202 ft 432 kts 257°
2026-05-04 13:46 30.01618 108.91876 32201 ft 429 kts 257°
2026-05-04 13:47 29.99900 108.85340 32203 ft 429 kts 257°
2026-05-04 13:47 29.98176 108.78769 32213 ft 427 kts 258°
2026-05-04 13:48 29.96458 108.72242 32216 ft 424 kts 258°
2026-05-04 13:48 29.94749 108.65774 32222 ft 427 kts 258°
2026-05-04 13:49 29.93013 108.59209 32210 ft 426 kts 258°
2026-05-04 13:49 29.91289 108.52723 32214 ft 425 kts 258°
2026-05-04 13:50 29.89555 108.46203 32203 ft 426 kts 258°
2026-05-04 13:50 29.87818 108.39693 32216 ft 426 kts 258°
2026-05-04 13:51 29.86090 108.33226 32223 ft 426 kts 257°
2026-05-04 13:51 29.84344 108.26704 32232 ft 424 kts 258°
2026-05-04 13:52 29.81738 108.17004 32238 ft 424 kts 258°
2026-05-04 13:53 29.79990 108.10517 32226 ft 425 kts 258°
2026-05-04 13:53 29.78239 108.04031 32199 ft 425 kts 258°
2026-05-04 13:54 29.75613 107.94331 32180 ft 423 kts 258°
2026-05-04 13:55 29.72994 107.84700 32208 ft 425 kts 258°
2026-05-04 13:55 29.70343 107.74985 32225 ft 423 kts 258°
2026-05-04 13:56 29.68589 107.68580 32223 ft 422 kts 258°
2026-05-04 13:57 29.66263 107.58878 32202 ft 417 kts 266°
2026-05-04 13:58 29.67760 107.45951 32172 ft 410 kts 287°
2026-05-04 13:58 29.70263 107.36629 32154 ft 409 kts 287°
2026-05-04 13:59 29.71678 107.30273 32148 ft 409 kts 284°
2026-05-04 14:00 29.73963 107.20885 32131 ft 409 kts 295°
2026-05-04 14:00 29.77374 107.15610 32131 ft 415 kts 310°
2026-05-04 14:00 29.79424 107.13299 32129 ft 416 kts 313°
2026-05-04 14:01 29.83694 107.08833 32132 ft 415 kts 314°
2026-05-04 14:02 29.90180 107.02148 32138 ft 416 kts 314°
2026-05-04 14:02 29.94451 106.97710 32139 ft 414 kts 314°
2026-05-04 14:03 29.98727 106.93241 32153 ft 417 kts 314°
2026-05-04 14:03 30.02996 106.88763 32143 ft 415 kts 314°
2026-05-04 14:04 30.09395 106.82034 32151 ft 415 kts 314°
2026-05-04 14:04 30.13663 106.77533 32151 ft 416 kts 315°
2026-05-04 14:05 30.20074 106.70770 32155 ft 416 kts 314°
2026-05-04 14:06 30.24351 106.66249 32130 ft 418 kts 314°
2026-05-04 14:06 30.28612 106.61740 32123 ft 416 kts 315°
2026-05-04 14:07 30.32893 106.57201 32136 ft 418 kts 315°
2026-05-04 14:07 30.37176 106.52657 32133 ft 417 kts 315°
2026-05-04 14:08 30.41431 106.48139 32124 ft 417 kts 314°
2026-05-04 14:08 30.45707 106.43596 32125 ft 418 kts 315°
2026-05-04 14:09 30.52077 106.36774 32119 ft 415 kts 313°
2026-05-04 14:10 30.56892 106.28533 32113 ft 413 kts 293°
2026-05-04 14:10 30.58499 106.22130 32123 ft 417 kts 281°
2026-05-04 14:11 30.58599 106.15369 32104 ft 422 kts 270°
2026-05-04 14:11 30.57609 106.05201 32111 ft 423 kts 267°
2026-05-04 14:12 30.56865 105.98412 32103 ft 425 kts 268°
2026-05-04 14:13 30.55771 105.88226 32105 ft 425 kts 268°
2026-05-04 14:13 30.55061 105.81512 32100 ft 425 kts 268°
2026-05-04 14:14 30.54347 105.74747 32112 ft 424 kts 268°
2026-05-04 14:14 30.53263 105.64524 32112 ft 425 kts 268°
2026-05-04 14:15 30.51824 105.51055 32111 ft 424 kts 268°
2026-05-04 14:16 30.50735 105.40950 31689 ft 416 kts 268°
2026-05-04 14:17 30.50108 105.34238 29719 ft 432 kts 271°
2026-05-04 14:17 30.50057 105.30753 28547 ft 436 kts 276°
2026-05-04 14:17 30.50747 105.23976 25776 ft 445 kts 282°
2026-05-04 14:18 30.51338 105.20311 24613 ft 442 kts 283°
2026-05-04 14:18 30.52515 105.13435 22537 ft 434 kts 283°
2026-05-04 14:19 30.53229 105.06616 21483 ft 430 kts 271°
2026-05-04 14:19 30.52665 105.03162 21226 ft 442 kts 255°
2026-05-04 14:19 30.51263 104.99995 20774 ft 445 kts 239°
2026-05-04 14:19 30.49222 104.97300 20010 ft 448 kts 229°
2026-05-04 14:20 30.46944 104.94833 19186 ft 449 kts 226°
2026-05-04 14:20 30.44601 104.92464 18398 ft 448 kts 225°
2026-05-04 14:20 30.42241 104.90137 17627 ft 446 kts 224°
2026-05-04 14:21 30.37565 104.85447 15999 ft 443 kts 224°
2026-05-04 14:21 30.35292 104.83093 15212 ft 435 kts 224°
2026-05-04 14:21 30.33078 104.80764 14443 ft 424 kts 224°
2026-05-04 14:21 30.30963 104.78516 13688 ft 413 kts 224°
2026-05-04 14:22 30.28877 104.76284 12951 ft 403 kts 224°
2026-05-04 14:22 30.26855 104.74114 12229 ft 394 kts 224°
2026-05-04 14:22 30.24865 104.71977 11515 ft 390 kts 224°
2026-05-04 14:22 30.22913 104.69884 11068 ft 373 kts 223°
2026-05-04 14:23 30.19354 104.66074 10814 ft 328 kts 223°
2026-05-04 14:23 30.17689 104.64291 10648 ft 326 kts 223°
2026-05-04 14:23 30.16036 104.62524 10488 ft 316 kts 223°
2026-05-04 14:24 30.14464 104.60846 10338 ft 299 kts 223°
2026-05-04 14:24 30.12975 104.59257 10180 ft 285 kts 223°
2026-05-04 14:24 30.11535 104.57722 9938 ft 276 kts 223°
2026-05-04 14:24 30.10124 104.56216 9551 ft 276 kts 223°
2026-05-04 14:25 30.08709 104.54710 9187 ft 276 kts 223°
2026-05-04 14:25 30.05905 104.51724 8484 ft 273 kts 222°
2026-05-04 14:25 30.04516 104.50249 8140 ft 272 kts 222°
2026-05-04 14:26 30.03143 104.48789 7823 ft 269 kts 222°
2026-05-04 14:26 30.01778 104.47338 7682 ft 259 kts 222°
2026-05-04 14:26 30.00487 104.45967 7613 ft 248 kts 222°
2026-05-04 14:26 29.99239 104.44640 7537 ft 237 kts 222°
2026-05-04 14:27 29.98143 104.43274 7459 ft 229 kts 235°
2026-05-04 14:27 29.97569 104.41537 7333 ft 239 kts 265°
2026-05-04 14:27 29.97857 104.39683 7052 ft 240 kts 289°
2026-05-04 14:27 29.98518 104.37947 6771 ft 231 kts 293°
2026-05-04 14:28 29.99154 104.36309 6503 ft 213 kts 291°
2026-05-04 14:28 29.99713 104.34793 6286 ft 201 kts 291°
2026-05-04 14:28 30.00425 104.33409 6064 ft 205 kts 311°
2026-05-04 14:28 30.01654 104.32574 5838 ft 207 kts 345°
2026-05-04 14:29 30.04464 104.32846 5394 ft 205 kts 23°
2026-05-04 14:29 30.07070 104.34178 4879 ft 201 kts 24°
2026-05-04 14:30 30.08356 104.34774 4879 ft 201 kts 23°
2026-05-04 14:30 30.09670 104.35383 4888 ft 201 kts 23°
2026-05-04 14:30 30.12279 104.36604 4697 ft 204 kts 23°
2026-05-04 14:31 30.13588 104.37215 4401 ft 199 kts 24°
2026-05-04 14:31 30.16148 104.38412 3872 ft 199 kts 24°
2026-05-04 14:32 30.18661 104.39587 3351 ft 185 kts 24°
2026-05-04 14:32 30.19816 104.40127 3119 ft 175 kts 24°
2026-05-04 14:32 30.20922 104.40646 2916 ft 168 kts 24°
2026-05-04 14:32 30.21983 104.41142 2673 ft 159 kts 24°
2026-05-04 14:33 30.22999 104.41619 2465 ft 158 kts 24°
2026-05-04 14:33 30.24030 104.42103 2257 ft 158 kts 24°
2026-05-04 14:33 30.25042 104.42577 2054 ft 158 kts 23°
2026-05-04 14:33 30.26063 104.43056 1844 ft 158 kts 23°
2026-05-04 14:34 30.27089 104.43533 1633 ft 157 kts 23°
2026-05-04 14:34 30.28089 104.43988 1466 ft 151 kts 23°
2026-05-04 14:34 30.28985 104.44425 1459 ft 113 kts 22°
2026-05-04 14:34 30.29538 104.44677 1459 ft 60 kts 21°
2026-05-04 14:35 30.29871 104.44775 1459 ft 37 kts 358°
2026-05-04 14:35 30.30080 104.44759 1459 ft 27 kts 356°
2026-05-04 14:35 30.30253 104.44797 1459 ft 23 kts 24°
2026-05-04 14:35 30.30382 104.44774 1459 ft 22 kts 295°
2026-05-04 14:36 30.30446 104.44596 1459 ft 23 kts 291°
2026-05-04 14:36 30.30504 104.44425 1459 ft 23 kts 291°
2026-05-04 14:36 30.30573 104.44237 1459 ft 26 kts 292°
2026-05-04 14:36 30.30644 104.44037 1459 ft 27 kts 292°
2026-05-04 14:37 30.30716 104.43838 1459 ft 25 kts 292°
2026-05-04 14:37 30.30766 104.43695 1459 ft 12 kts 291°
2026-05-04 14:37 30.30818 104.43660 1459 ft 8 kts 20°
2026-05-04 14:37 30.30858 104.43684 1459 ft 2 kts 31°
2026-05-04 14:38 30.30863 104.43688 1459 ft 0 kts 32°